Regional Weather Roundup
Issued by NWS

Home | Current Version | Previous Version | Graphics & Text | Print | Product List | Glossary On
Versions: 1 2 3 4 5 6 7 8 9 10 11 12 13 14 15 16 17 18 19 20 21 22 23 24 25 26 27 28 29 30 31 32 33 34 35 36 37 38 39 40 41 42 43 44 45 46 47 48 49 50
000
ASUS43 KDMX 031707
RWRIA

WEATHER ROUNDUP FOR IOWA
NATIONAL WEATHER SERVICE DES MOINES IA
1200 PM CDT SUN MAY 03 2015

NOTE: "FAIR" INDICATES FEW OR NO CLOUDS BELOW 12,000 FEET WITH NO
SIGNIFICANT WEATHER AND/OR OBSTRUCTIONS TO VISIBILITY.

* - THESE STATIONS ARE NOT NWS STATIONS...THUS NOT UNDER NWS
QUALITY CONTROL.  THEY ALSO DO NOT REPORT WEATHER SUCH
AS PRECIPITATION OR FOG.

IAZ001>003-012>014-020>022-031>034-043>046-031800-
   NORTHWEST IOWA

CITY           SKY/WX    TMP DP  RH WIND       PRES   REMARKS
CARROLL *      SUNNY     77  59  53 S10G18    29.78S
CHEROKEE *     SUNNY     77  59  53 CALM      29.76S
DENISON *      SUNNY     75  61  60 SW9       29.75S
LE MARS *      SUNNY     79  57  47 VRB7      29.76S HX  80
ORANGE CITY *  SUNNY     75  55  50 CALM      29.76F
SHELDON *      SUNNY     77  59  53 VRB7      29.76S
SIOUX CITY     MOSUNNY   77  57  50 SE8       29.74S
SPENCER        SUNNY     78  55  44 MISG      29.78S
STORM LAKE *   SUNNY     77  55  47 S8        29.78S
$$

IAZ055>058-069>071-079>083-090>094-031800-
   SOUTHWEST IOWA

CITY           SKY/WX    TMP DP  RH WIND       PRES   REMARKS
ATLANTIC *     SUNNY     75  63  64 S16       29.78S
AUDUBON *      SUNNY     73  63  68 S15       29.80R
CLARINDA *     SUNNY     75  61  60 S20       29.79F
COUNCIL BLFS * SUNNY     75  64  69 S13G18    29.77S
CRESTON *      SUNNY     73  61  64 S17G25    29.81S
HARLAN  *      SUNNY     73  66  78 S14       29.81R
LAMONI         MOSUNNY   75  59  57 S20       29.83S
RED OAK *      SUNNY     75  63  64 S16G22    29.78R
SHENANDOAH *   SUNNY     77  61  57 S18       29.78R
$$

IAZ047>049-059>061-072>074-084-031800-
   CENTRAL IOWA

CITY           SKY/WX    TMP DP  RH WIND       PRES   REMARKS
AMES           MOSUNNY   75  61  61 S9        29.81S
ANKENY *       SUNNY     75  59  57 S15       29.82S
CHARITON *     SUNNY     73  59  60 S20       29.84S
DES MOINES     CLOUDY    77  57  50 S14G20    29.82R
GRINNELL*      MOSUNNY   73  59  60 S9        29.85S
KNOXVILLE *    SUNNY     73  57  56 S9G16     29.83R
MARSHALLTOWN   MOSUNNY   72  60  66 S12       29.83S
PELLA *        MOSUNNY   75  63  64 S8        29.86R
PERRY *          N/A     77  57  50 S14       29.80S
$$

IAZ004>006-015-016-023>025-035-036-031800-
   NORTH CENTRAL IOWA

CITY           SKY/WX    TMP DP  RH WIND       PRES   REMARKS
ALGONA *       SUNNY     75  57  53 S10       29.80S
CLARION *      SUNNY     77  57  50 SW8G16    29.80F
ESTHERVILLE    SUNNY     75  54  47 VRB6      29.78S
FORT DODGE *   SUNNY     79  59  50 SW8       29.81R HX  80
MASON CITY     MOSUNNY   77  55  46 SW10      29.82S
FOREST CITY *  SUNNY     73  54  49 SW7       29.81S
IOWA FALLS *     N/A     75  59  57 SW7       29.83S
$$

IAZ007>011-017>019-026>030-037>042-050>054-066-031800-
   NORTHEAST IOWA

CITY           SKY/WX    TMP DP  RH WIND       PRES   REMARKS
CEDAR RAPIDS   CLOUDY    59  57  93 SE10      29.88F
CHARLES CITY * MOSUNNY   73  57  56 S9        29.83S
CLINTON *        N/A     66  55  68 SE8       29.94R
DECORAH *      MOSUNNY   73  54  49 SW9G15    29.83S
DUBUQUE        CLOUDY    63  54  72 S21       29.89S
MONTICELLO *   LGT RAIN  61  59  94 S13       29.90S
OELWEIN *      SUNNY     73  55  53 S15       29.85F
WATERLOO       SUNNY     72  58  61 S9        29.83F
$$

IAZ064-065-067-068-078-031800-
   EAST CENTRAL IOWA

CITY           SKY/WX    TMP DP  RH WIND       PRES   REMARKS
DAVENPORT      CLOUDY    72  53  51 S15G24    29.90S
IOWA CITY      CLOUDY    63  57  81 NE6       29.91R
MT. PLEASANT * MOSUNNY   72  55  56 S18G24    29.88R
MUSCATINE *    PTSUNNY   70  57  64 S9        29.89R
QUAD CITIES    CLOUDY    76  56  49 S10G18    29.87S
$$

IAZ062-063-075>077-085>089-095>099-031800-
   SOUTHEAST IOWA

CITY           SKY/WX    TMP DP  RH WIND       PRES   REMARKS
BURLINGTON     CLOUDY    76  55  48 SW20G26   29.89F
FAIRFIELD *    MOSUNNY   72  59  64 S15G23    29.87F
FORT MADISON * SUNNY     73  55  53 S13G21    29.91S
KEOKUK *       SUNNY     75  57  53 S14G22    29.91F
OSKALOOSA *      N/A     72  57  60 S12G20    29.87S
CENTERVILLE *  SUNNY     73  59  60 S17G25    29.88S
OTTUMWA        MOSUNNY   73  59  61 S17       29.85F
WASHINGTON *   PTSUNNY   72  63  73 SW14G22   29.88R
$$

ABBREVIATIONS USED IN REMARKS
   TC - TEMPERATURES IN CELSIUS
  WCI - WIND CHILL INDEX
   HX - HEAT INDEX
  VSB - VISIBILITY
$$



USA.gov is the U.S. government's official web portal to all federal, state and local government web resources and services.